| time (UTC) | temp F | wind direction | speed knots | gust knots | rain 1hr in | rain 24hr in | rain mn in | humidity % | barometer mb |
| 20260508014605 | 46 | 166 | 0.0 | 0.9 | 0.00 | 0.00 | 0.00 | 84 | 1015.2 |
| 20260508014105 | 46 | 166 | 0.0 | 0.9 | 0.00 | 0.00 | 0.00 | 84 | 1015.2 |
| 20260508013606 | 46 | 166 | 0.0 | 0.0 | 0.00 | 0.00 | 0.00 | 84 | 1015.2 |
| 20260508012604 | 46 | 166 | 0.0 | 0.0 | 0.00 | 0.00 | 0.00 | 83 | 1015.3 |
| 20260508011605 | 46 | 166 | 0.0 | 0.0 | 0.00 | 0.00 | 0.00 | 83 | 1015.3 |
| 20260508011104 | 46 | 166 | 0.0 | 0.0 | 0.00 | 0.00 | 0.00 | 83 | 1015.4 |
| 20260508010604 | 47 | 166 | 0.0 | 0.9 | 0.00 | 0.00 | 0.00 | 83 | 1015.4 |
| 20260508010105 | 47 | 166 | 0.0 | 1.7 | 0.00 | 0.00 | 0.00 | 83 | 1015.4 |
| 20260508004105 | 47 | 166 | 0.0 | 0.0 | 0.00 | 0.00 | 0.00 | 82 | 1015.4 |
| 20260508003106 | 48 | 166 | 0.0 | 0.9 | 0.00 | 0.00 | 0.00 | 82 | 1015.4 |
| 20260508002604 | 48 | 166 | 0.9 | 1.7 | 0.00 | 0.00 | 0.00 | 81 | 1015.4 |
| 20260508002105 | 48 | 166 | 0.9 | 1.7 | 0.00 | 0.00 | 0.00 | 84 | 1015.5 |
| 20260508001605 | 48 | 166 | 0.9 | 1.7 | 0.00 | 0.00 | 0.00 | 81 | 1015.4 |
| 20260508001105 | 49 | 166 | 0.9 | 1.7 | 0.00 | 0.00 | 0.00 | 81 | 1015.5 |
| 20260508000604 | 49 | 166 | 0.0 | 0.9 | 0.00 | 0.00 | 0.00 | 81 | 1015.5 |
| 20260507235605 | 49 | 166 | 0.0 | 0.9 | 0.00 | 0.00 | 0.00 | 80 | 1015.5 |
| 20260507235104 | 50 | 166 | 0.0 | 1.7 | 0.00 | 0.00 | 0.00 | 80 | 1015.5 |
| 20260507234605 | 50 | 166 | 0.0 | 1.7 | 0.00 | 0.00 | 0.00 | 80 | 1015.5 |
| 20260507233105 | 51 | 166 | 0.9 | 2.6 | 0.00 | 0.00 | 0.00 | 80 | 1015.5 |
| 20260507232605 | 51 | 167 | 1.7 | 2.6 | 0.00 | 0.00 | 0.00 | 80 | 1015.5 |
| 20260507231604 | 51 | 166 | 2.6 | 5.2 | 0.00 | 0.00 | 0.00 | 79 | 1015.5 |
| 20260507231107 | 52 | 154 | 2.6 | 5.2 | 0.00 | 0.00 | 0.00 | 79 | 1015.5 |
| 20260507230604 | 52 | 150 | 2.6 | 4.3 | 0.00 | 0.00 | 0.00 | 78 | 1015.5 |
| 20260507225605 | 52 | 158 | 4.3 | 5.2 | 0.00 | 0.00 | 0.00 | 78 | 1015.4 |
| 20260507225105 | 52 | 171 | 2.6 | 4.3 | 0.00 | 0.00 | 0.00 | 77 | 1015.5 |
| 20260507224104 | 53 | 193 | 0.0 | 2.6 | 0.00 | 0.00 | 0.00 | 76 | 1015.8 |
| 20260507223604 | 53 | 193 | 0.9 | 1.7 | 0.00 | 0.00 | 0.00 | 76 | 1015.9 |
| 20260507223104 | 53 | 193 | 0.9 | 1.7 | 0.00 | 0.00 | 0.00 | 76 | 1015.9 |
| 20260507215604 | 54 | 175 | 2.6 | 5.2 | 0.00 | 0.00 | 0.00 | 75 | 1015.8 |
| 20260507213104 | 54 | 198 | 1.7 | 5.2 | 0.00 | 0.00 | 0.00 | 74 | 1015.9 |
| 20260507212604 | 54 | 178 | 2.6 | 5.2 | 0.00 | 0.00 | 0.00 | 74 | 1015.9 |
| 20260507212104 | 54 | 181 | 3.5 | 5.2 | 0.00 | 0.00 | 0.00 | 74 | 1015.9 |
| 20260507210105 | 54 | 189 | 2.6 | 6.1 | 0.00 | 0.00 | 0.00 | 73 | 1015.7 |
| 20260507205604 | 54 | 181 | 2.6 | 6.1 | 0.00 | 0.00 | 0.00 | 73 | 1015.6 |
| 20260507204604 | 54 | 175 | 4.3 | 6.1 | 0.00 | 0.00 | 0.00 | 73 | 1015.6 |
| 20260507203604 | 54 | 183 | 3.5 | 6.1 | 0.00 | 0.00 | 0.00 | 72 | 1015.5 |
| 20260507203105 | 55 | 171 | 4.3 | 7.8 | 0.00 | 0.00 | 0.00 | 72 | 1015.5 |
| 20260507202104 | 55 | 167 | 4.3 | 6.1 | 0.00 | 0.00 | 0.00 | 72 | 1015.3 |
| 20260507195604 | 55 | 184 | 5.2 | 10.4 | 0.00 | 0.00 | 0.00 | 71 | 1015.0 |
| 20260507195104 | 55 | 180 | 4.3 | 7.0 | 0.00 | 0.00 | 0.00 | 71 | 1014.9 |
| 20260507194604 | 56 | 196 | 3.5 | 7.0 | 0.00 | 0.00 | 0.00 | 71 | 1014.9 |
| 20260507191104 | 57 | 190 | 4.3 | 7.0 | 0.00 | 0.00 | 0.00 | 68 | 1014.7 |
| 20260507190105 | 57 | 161 | 5.2 | 7.8 | 0.00 | 0.00 | 0.00 | 67 | 1014.6 |
| 20260507185604 | 57 | 213 | 5.2 | 10.4 | 0.00 | 0.00 | 0.00 | 66 | 1014.6 |
| 20260507185104 | 57 | 193 | 5.2 | 7.8 | 0.00 | 0.00 | 0.00 | 66 | 1014.6 |
| 20260507184604 | 57 | 218 | 5.2 | 10.4 | 0.00 | 0.00 | 0.00 | 65 | 1014.6 |
| 20260507184105 | 57 | 187 | 6.1 | 10.4 | 0.00 | 0.00 | 0.00 | 64 | 1014.6 |
| 20260507183104 | 58 | 235 | 5.2 | 10.4 | 0.00 | 0.00 | 0.00 | 63 | 1014.5 |
| 20260507182105 | 58 | 226 | 4.3 | 7.0 | 0.00 | 0.00 | 0.00 | 60 | 1014.5 |
| 20260507174604 | 59 | 217 | 6.1 | 10.4 | 0.00 | 0.00 | 0.00 | 56 | 1014.2 |
| 20260507173604 | 59 | 247 | 4.3 | 8.7 | 0.00 | 0.00 | 0.00 | 58 | 1014.2 |
| 20260507172604 | 59 | 213 | 5.2 | 10.4 | 0.00 | 0.00 | 0.00 | 58 | 1014.2 |
| 20260507171604 | 59 | 206 | 2.6 | 7.0 | 0.00 | 0.00 | 0.00 | 58 | 1014.2 |
| 20260507171104 | 59 | 218 | 4.3 | 8.7 | 0.00 | 0.00 | 0.00 | 58 | 1014.2 |
| 20260507170606 | 59 | 241 | 4.3 | 7.8 | 0.00 | 0.00 | 0.00 | 58 | 1014.2 |
| 20260507165604 | 59 | 221 | 6.1 | 10.4 | 0.00 | 0.00 | 0.00 | 59 | 1014.2 |
| 20260507164104 | 59 | 204 | 6.1 | 8.7 | 0.00 | 0.00 | 0.00 | 58 | 1014.2 |
| 20260507163104 | 60 | 216 | 4.3 | 6.1 | 0.00 | 0.00 | 0.00 | 58 | 1014.1 |
| 20260507162604 | 60 | 247 | 5.2 | 7.0 | 0.00 | 0.00 | 0.00 | 58 | 1014.1 |
| 20260507162104 | 60 | 245 | 2.6 | 7.0 | 0.00 | 0.00 | 0.00 | 57 | 1014.1 |
| 20260507161604 | 60 | 220 | 5.2 | 10.4 | 0.00 | 0.00 | 0.00 | 57 | 1014.1 |
| 20260507160604 | 60 | 216 | 6.1 | 11.3 | 0.00 | 0.00 | 0.00 | 56 | 1014.1 |
| 20260507160104 | 60 | 186 | 5.2 | 10.4 | 0.00 | 0.00 | 0.00 | 55 | 1014.1 |
| 20260507154604 | 62 | 187 | 6.1 | 10.4 | 0.00 | 0.00 | 0.00 | 52 | 1014.1 |
| 20260507154104 | 63 | 195 | 6.1 | 10.4 | 0.00 | 0.00 | 0.00 | 53 | 1014.1 |
| 20260507151604 | 61 | 200 | 2.6 | 7.0 | 0.00 | 0.00 | 0.00 | 55 | 1014.2 |
| 20260507151104 | 61 | 185 | 3.5 | 7.8 | 0.00 | 0.00 | 0.00 | 55 | 1014.2 |
| 20260507144604 | 61 | 234 | 3.5 | 7.0 | 0.00 | 0.00 | 0.00 | 50 | 1014.4 |
| 20260507143604 | 61 | 219 | 4.3 | 7.0 | 0.00 | 0.00 | 0.00 | 51 | 1014.4 |
| 20260507142604 | 61 | 181 | 2.6 | 7.0 | 0.00 | 0.00 | 0.00 | 52 | 1014.3 |
| 20260507140604 | 63 | 170 | 2.6 | 7.0 | 0.00 | 0.00 | 0.00 | 49 | 1014.5 |
| 20260507140104 | 63 | 169 | 5.2 | 10.4 | 0.00 | 0.00 | 0.00 | 50 | 1014.5 |
| 20260507135104 | 64 | 221 | 7.8 | 10.4 | 0.00 | 0.00 | 0.00 | 48 | 1014.5 |
| 20260507134104 | 64 | 160 | 6.1 | 8.7 | 0.00 | 0.00 | 0.00 | 50 | 1014.6 |
| 20260507133604 | 64 | 188 | 3.5 | 12.2 | 0.00 | 0.00 | 0.00 | 52 | 1014.5 |
| 20260507132604 | 63 | 183 | 6.1 | 10.4 | 0.00 | 0.00 | 0.00 | 49 | 1014.6 |
| 20260507132104 | 63 | 225 | 6.1 | 10.4 | 0.00 | 0.00 | 0.00 | 50 | 1014.7 |
| 20260507125104 | 61 | 178 | 4.3 | 7.8 | 0.00 | 0.00 | 0.00 | 55 | 1014.8 |
| 20260507124604 | 60 | 211 | 4.3 | 8.7 | 0.00 | 0.00 | 0.00 | 57 | 1014.9 |
| 20260507124104 | 60 | 235 | 4.3 | 7.8 | 0.00 | 0.00 | 0.00 | 55 | 1014.9 |
| 20260507123104 | 60 | 219 | 2.6 | 6.1 | 0.00 | 0.00 | 0.00 | 56 | 1014.9 |
| 20260507122604 | 60 | 191 | 4.3 | 7.0 | 0.00 | 0.00 | 0.00 | 56 | 1014.9 |
| 20260507121604 | 60 | 252 | 4.3 | 6.1 | 0.00 | 0.00 | 0.00 | 56 | 1015.0 |
| 20260507120604 | 60 | 159 | 4.3 | 7.0 | 0.00 | 0.00 | 0.00 | 57 | 1015.0 |
| 20260507120104 | 60 | 204 | 4.3 | 7.0 | 0.00 | 0.00 | 0.00 | 59 | 1015.0 |
| 20260507114605 | 60 | 171 | 4.3 | 10.4 | 0.00 | 0.00 | 0.00 | 60 | 1015.1 |
| 20260507113104 | 59 | 152 | 3.5 | 7.0 | 0.00 | 0.00 | 0.00 | 59 | 1015.0 |
| 20260507111104 | 60 | 196 | 4.3 | 8.7 | 0.00 | 0.00 | 0.00 | 55 | 1015.1 |
| 20260507110104 | 62 | 178 | 4.3 | 10.4 | 0.00 | 0.00 | 0.00 | 55 | 1015.1 |
| 20260507105603 | 62 | 212 | 5.2 | 7.8 | 0.00 | 0.00 | 0.00 | 56 | 1015.2 |
| 20260507104603 | 62 | 212 | 4.3 | 7.0 | 0.00 | 0.00 | 0.00 | 58 | 1015.2 |
| 20260507104103 | 59 | 242 | 2.6 | 6.1 | 0.00 | 0.00 | 0.00 | 58 | 1015.3 |
| 20260507103104 | 60 | 234 | 2.6 | 6.1 | 0.00 | 0.00 | 0.00 | 56 | 1015.2 |
| 20260507102604 | 60 | 242 | 2.6 | 7.0 | 0.00 | 0.00 | 0.00 | 54 | 1015.3 |
| 20260507102104 | 61 | 238 | 3.5 | 8.7 | 0.00 | 0.00 | 0.00 | 54 | 1015.3 |
| 20260507101604 | 61 | 219 | 3.5 | 7.8 | 0.00 | 0.00 | 0.00 | 49 | 1015.3 |
| 20260507101104 | 63 | 204 | 4.3 | 6.1 | 0.00 | 0.00 | 0.00 | 54 | 1015.3 |
| 20260507100604 | 61 | 221 | 4.3 | 7.8 | 0.00 | 0.00 | 0.00 | 58 | 1015.3 |
| 20260507100104 | 60 | 210 | 4.3 | 7.8 | 0.00 | 0.00 | 0.00 | 53 | 1015.4 |
| 20260507091604 | 60 | 155 | 5.2 | 7.8 | 0.00 | 0.00 | 0.00 | 60 | 1015.4 |
| 20260507091104 | 60 | 212 | 2.6 | 7.0 | 0.00 | 0.00 | 0.00 | 62 | 1015.4 |
| 20260507090104 | 59 | 191 | 5.2 | 8.7 | 0.00 | 0.00 | 0.00 | 65 | 1015.4 |
| 20260507085104 | 59 | 185 | 5.2 | 7.8 | 0.00 | 0.00 | 0.00 | 64 | 1015.4 |
| 20260507084104 | 59 | 142 | 4.3 | 7.0 | 0.00 | 0.00 | 0.00 | 65 | 1015.4 |
| 20260507083604 | 58 | 159 | 4.3 | 7.0 | 0.00 | 0.00 | 0.00 | 65 | 1015.4 |
| 20260507083104 | 58 | 183 | 4.3 | 7.0 | 0.00 | 0.00 | 0.00 | 68 | 1015.4 |
| 20260507082104 | 57 | 189 | 4.3 | 6.1 | 0.00 | 0.00 | 0.00 | 70 | 1015.4 |
| 20260507080604 | 56 | 159 | 4.3 | 6.1 | 0.00 | 0.00 | 0.00 | 75 | 1015.4 |
| 20260507074604 | 54 | 194 | 1.7 | 4.3 | 0.00 | 0.00 | 0.00 | 79 | 1015.4 |
| 20260507073104 | 52 | 208 | 0.0 | 2.6 | 0.00 | 0.00 | 0.00 | 82 | 1015.4 |
| 20260507071104 | 51 | 178 | 0.9 | 5.2 | 0.00 | 0.00 | 0.00 | 84 | 1015.4 |
| 20260507070103 | 51 | 211 | 1.7 | 4.3 | 0.00 | 0.00 | 0.00 | 84 | 1015.4 |
| 20260507065104 | 51 | 215 | 0.9 | 2.6 | 0.00 | 0.00 | 0.00 | 85 | 1015.3 |
| 20260507064105 | 50 | 167 | 1.7 | 2.6 | 0.00 | 0.00 | 0.00 | 85 | 1015.3 |
| 20260507063603 | 50 | 167 | 0.9 | 4.3 | 0.00 | 0.00 | 0.00 | 86 | 1015.3 |
| 20260507062104 | 50 | 116 | 1.7 | 2.6 | 0.00 | 0.00 | 0.00 | 87 | 1015.2 |
| 20260507061605 | 49 | 114 | 0.0 | 2.6 | 0.00 | 0.00 | 0.00 | 87 | 1015.2 |
| 20260507060606 | 49 | 114 | 0.0 | 1.7 | 0.00 | 0.00 | 0.00 | 87 | 1015.1 |
| 20260507060105 | 48 | 114 | 0.9 | 2.6 | 0.00 | 0.00 | 0.00 | 87 | 1015.0 |
| 20260507054605 | 47 | 114 | 0.0 | 0.0 | 0.00 | 0.00 | 0.00 | 88 | 1015.0 |
| 20260507051605 | 46 | 114 | 0.0 | 0.0 | 0.00 | 0.00 | 0.00 | 87 | 1014.8 |
| 20260507051108 | 46 | 114 | 0.0 | 0.0 | 0.00 | 0.00 | 0.00 | 87 | 1014.8 |
| 20260507050105 | 46 | 114 | 0.0 | 0.9 | 0.00 | 0.00 | 0.00 | 87 | 1014.7 |
| 20260507044607 | 46 | 114 | 0.0 | 0.9 | 0.00 | 0.00 | 0.00 | 87 | 1014.6 |
| 20260507043105 | 46 | 114 | 0.0 | 1.7 | 0.00 | 0.00 | 0.00 | 87 | 1014.6 |
| 20260507042604 | 46 | 114 | 0.0 | 2.6 | 0.00 | 0.00 | 0.00 | 87 | 1014.6 |
| 20260507042104 | 46 | 114 | 0.9 | 1.7 | 0.00 | 0.00 | 0.00 | 87 | 1014.7 |
| 20260507041105 | 46 | 114 | 0.9 | 1.7 | 0.00 | 0.00 | 0.00 | 87 | 1014.7 |
| 20260507040605 | 45 | 114 | 0.0 | 0.0 | 0.00 | 0.00 | 0.00 | 87 | 1014.6 |
| 20260507035607 | 45 | 114 | 0.0 | 0.9 | 0.00 | 0.00 | 0.00 | 87 | 1014.6 |
| 20260507035105 | 45 | 114 | 0.0 | 1.7 | 0.00 | 0.00 | 0.00 | 86 | 1014.6 |
| 20260507034105 | 45 | 114 | 0.9 | 2.6 | 0.00 | 0.00 | 0.00 | 86 | 1014.6 |
| 20260507033605 | 45 | 114 | 0.9 | 2.6 | 0.00 | 0.00 | 0.00 | 86 | 1014.5 |
| 20260507032105 | 46 | 114 | 0.9 | 2.6 | 0.00 | 0.00 | 0.00 | 86 | 1014.6 |
| 20260507031105 | 46 | 114 | 1.7 | 2.6 | 0.00 | 0.00 | 0.00 | 86 | 1014.6 |
| 20260507030605 | 46 | 114 | 1.7 | 2.6 | 0.00 | 0.00 | 0.00 | 86 | 1014.5 |
| 20260507025604 | 46 | 114 | 1.7 | 2.6 | 0.00 | 0.00 | 0.00 | 85 | 1014.6 |
| 20260507024605 | 46 | 114 | 1.7 | 2.6 | 0.00 | 0.00 | 0.00 | 85 | 1014.5 |
| 20260507021605 | 47 | 114 | 0.0 | 1.7 | 0.00 | 0.00 | 0.00 | 84 | 1014.4 |
| 20260507021105 | 47 | 114 | 0.0 | 0.9 | 0.00 | 0.00 | 0.00 | 84 | 1014.4 |
| 20260507015604 | 47 | 114 | 0.9 | 2.6 | 0.00 | 0.00 | 0.00 | 84 | 1014.3 |